Date,TemperatureHighF,TemperatureAvgF,TemperatureLowF,DewpointHighF,DewpointAvgF,DewpointLowF,HumidityHigh,HumidityAvg,HumidityLow,PressureMaxIn,PressureMinIn,WindSpeedMaxMPH,WindSpeedAvgMPH,GustSpeedMaxMPH,PrecipitationSumIn
2014-1-1,44.2,35.4,26.1,37.1,26.3,16.1,87,61,41,30.19,29.67,4,1,8,0.00
2014-1-2,40.8,34.2,29.1,38.5,32.1,28.1,97,89,81,29.92,29.04,7,2,14,0.00
2014-1-3,28.9,20.1,16.3,27.9,11.8,-1.4,94,62,28,30.26,29.26,11,2,21,0.01
2014-1-4,37.8,24.4,8.6,32.5,13.6,-3.0,79,52,33,30.32,29.81,6,2,11,0.05
2014-1-5,55.4,45.0,35.6,54.6,41.2,30.6,99,82,67,30.07,29.27,7,2,12,0.04
2014-1-6,55.2,42.4,18.0,54.6,37.9,-0.8,99,81,26,29.71,29.00,17,6,29,0.29
2014-1-7,17.8,13.3,8.6,2.5,-2.6,-7.9,42,33,27,30.22,29.47,20,9,29,0.01
2014-1-8,27.5,21.5,15.3,14.8,5.4,-0.6,54,36,25,30.38,29.95,8,2,14,0.00
2014-1-9,37.8,30.2,24.6,24.7,19.8,14.0,78,55,41,30.42,30.02,5,1,8,0.00
2014-1-10,52.0,40.1,27.0,51.1,38.6,21.9,99,92,74,30.32,29.66,4,1,7,0.32
2014-1-11,58.6,47.0,48.0,58.4,34.8,-99.9,99,86,91,29.91,28.94,12,4,28,0.11
2014-1-12,48.6,42.4,37.2,48.2,37.0,32.8,99,75,59,29.89,29.00,9,3,14,0.01
2014-1-13,53.4,43.5,31.1,43.7,37.6,28.5,95,75,55,29.92,29.44,6,2,10,0.00
2014-1-14,50.9,45.7,39.2,48.3,44.1,38.7,99,93,71,29.69,29.18,4,1,8,0.43
2014-1-15,51.1,28.7,36.0,48.7,-6.2,-99.9,99,62,82,29.77,29.37,4,1,7,0.02
2014-1-16,40.3,36.3,32.2,39.5,30.0,24.9,99,71,55,29.76,29.38,8,3,13,0.01
2014-1-17,49.8,40.6,34.0,39.3,33.9,25.2,84,70,44,29.77,29.42,6,2,10,0.00
2014-1-18,45.1,35.5,25.9,39.3,25.6,12.6,84,58,41,29.74,29.48,12,5,20,0.00
2014-1-19,46.4,35.7,25.3,33.6,25.2,13.0,68,55,45,29.71,29.50,8,4,14,0.00
2014-1-20,47.8,41.4,37.2,36.4,32.7,30.8,75,63,46,29.65,29.41,8,3,13,0.00
2014-1-21,37.6,28.0,15.6,32.1,22.4,11.4,85,72,63,29.66,29.44,17,7,28,0.00
2014-1-22,17.4,14.4,8.6,11.6,4.6,-1.9,77,53,40,29.83,29.50,17,6,24,0.00
2014-1-23,24.8,20.0,16.0,12.1,6.6,2.7,47,42,30,30.13,29.82,10,4,20,0.00
2014-1-24,22.3,18.0,14.4,8.9,3.7,-0.9,49,39,26,30.26,29.94,11,5,17,0.00
2014-1-25,31.8,27.5,22.3,23.3,15.6,7.0,83,49,34,29.94,29.26,14,6,25,0.00
2014-1-26,38.8,29.8,23.5,31.9,16.5,6.3,72,46,28,29.73,29.35,15,4,21,0.00
2014-1-27,43.7,36.1,23.9,34.6,25.0,3.9,73,55,26,29.90,29.45,8,4,17,0.00
2014-1-28,23.9,17.6,13.5,9.3,0.4,-5.7,74,34,21,30.17,29.90,8,4,17,0.00
2014-1-29,21.7,17.3,13.3,9.8,6.0,-1.6,75,51,25,30.13,29.92,10,4,15,0.00
2014-1-30,32.7,20.9,8.2,16.9,7.5,-1.3,68,44,24,30.25,29.98,5,1,8,0.00
2014-1-31,38.1,27.3,15.6,24.4,18.2,9.9,81,60,32,30.01,29.89,5,1,8,0.00
2014-2-1,49.5,36.8,23.5,44.1,30.6,18.6,94,72,48,30.09,29.78,6,1,12,0.00
2014-2-2,56.1,44.3,35.4,43.5,38.8,33.5,96,77,43,29.81,29.47,4,1,8,0.08
2014-2-3,45.1,37.8,32.9,38.7,34.7,30.2,97,85,63,30.06,29.68,12,5,21,0.63
2014-2-4,35.2,32.9,30.0,32.4,27.7,24.2,88,74,65,30.22,29.92,8,3,13,0.01
2014-2-5,41.4,37.4,34.5,41.2,36.1,28.2,99,93,67,29.91,29.43,13,4,18,0.35
2014-2-6,35.1,30.0,26.6,28.2,20.1,15.6,69,56,44,30.08,29.75,12,4,22,0.01
2014-2-7,38.5,32.3,27.3,27.4,22.7,18.4,80,58,42,30.13,30.03,6,2,8,0.00
2014-2-8,31.1,28.6,26.2,26.5,18.3,9.8,84,56,31,30.11,29.83,11,2,16,0.00
2014-2-9,34.3,29.4,26.2,28.8,20.0,13.8,86,58,43,29.97,29.70,8,2,15,0.00
2014-2-10,30.7,27.7,25.7,28.1,17.2,11.2,86,54,39,30.07,29.81,8,3,16,0.00
2014-2-11,30.2,25.1,20.1,13.1,10.1,6.5,56,40,26,30.23,30.07,11,5,19,0.00
2014-2-12,33.1,23.9,14.5,31.1,12.0,-99.9,92,56,33,30.29,29.89,11,5,16,0.00
2014-2-13,44.1,33.5,32.9,42.9,18.6,-99.9,98,81,89,29.90,28.86,916,8,916,1.30
2014-2-14,46.4,34.2,31.6,34.4,17.1,-99.9,95,59,51,29.53,28.95,15,4,24,0.17
2014-2-15,45.3,38.2,32.2,42.2,33.7,21.2,95,79,54,29.62,29.21,11,4,19,0.21
2014-2-16,34.5,30.0,26.1,21.9,17.6,13.0,60,48,36,29.92,29.47,11,4,21,0.01
2014-2-17,33.1,27.5,22.6,22.8,14.5,9.4,63,46,29,30.19,29.93,10,3,21,0.00
2014-2-18,48.2,38.8,32.7,39.4,32.7,23.1,97,73,51,30.06,29.77,8,2,13,0.28
2014-2-19,54.7,44.3,37.0,48.9,39.1,32.4,95,76,62,29.89,29.33,9,3,16,0.02
2014-2-20,52.5,42.2,34.3,44.6,33.9,27.6,95,67,27,30.06,29.74,7,2,11,0.02
2014-2-21,57.4,38.8,35.6,56.6,22.0,-99.9,99,80,86,29.74,29.47,9,2,17,0.08
2014-2-22,55.0,45.5,34.5,38.6,33.6,23.5,98,58,19,29.89,29.71,6,2,11,0.01
2014-2-23,61.9,49.8,41.7,38.9,36.1,33.8,70,51,25,29.82,29.54,6,2,11,0.01
2014-2-24,43.0,39.4,34.9,36.0,26.9,16.1,85,53,27,29.88,29.65,9,4,15,0.00
2014-2-25,34.9,31.3,29.1,28.4,22.2,13.0,86,61,33,29.90,29.75,8,3,14,0.01
2014-2-26,35.8,28.8,22.1,28.7,17.9,2.5,82,55,24,29.77,29.60,11,2,15,0.02
2014-2-27,41.0,28.5,16.3,27.6,13.2,1.8,65,40,25,29.86,29.41,14,4,24,0.01
2014-2-28,25.7,19.0,12.9,6.2,-1.9,-8.3,46,25,20,30.19,29.86,12,3,23,0.00
2014-3-1,41.7,29.5,16.5,30.8,21.1,6.0,84,61,46,30.18,29.75,5,1,8,0.00
2014-3-2,54.1,39.2,30.7,37.4,31.8,-99.9,92,73,38,29.95,29.61,8,2,13,0.13
2014-3-3,35.2,7.6,24.3,33.5,-68.6,-99.9,91,21,79,30.08,29.72,8,1,11,0.27
2014-3-4,32.5,2.6,30.2,21.7,-90.1,-99.9,54,4,50,30.16,30.00,916,0,916,0.01
2014-3-5,40.1,20.4,30.2,30.8,-28.6,-99.9,66,31,44,30.13,29.94,916,2,916,0.01
2014-3-6,32.7,15.6,26.1,25.8,-38.2,-99.9,72,30,43,30.32,30.13,14,4,21,0.00
2014-3-7,39.0,35.8,32.9,34.4,31.4,25.9,87,78,67,30.13,29.61,17,8,24,0.04
2014-3-8,54.0,41.9,33.8,39.9,35.3,31.1,87,72,47,29.70,29.61,7,2,13,0.02
2014-3-9,46.8,42.0,36.5,38.2,33.0,23.6,85,63,43,29.81,29.64,7,2,13,0.01
2014-3-10,54.7,43.3,34.3,37.9,31.4,-99.9,69,56,41,29.77,29.42,8,2,11,0.00
2014-3-11,68.0,51.9,41.7,45.5,39.2,34.9,70,53,33,29.47,29.38,5,2,7,0.00
2014-3-12,59.5,49.9,39.4,53.6,44.2,32.1,95,76,58,29.43,28.82,14,3,26,0.15
2014-3-13,39.2,28.9,24.8,32.2,9.6,-99.9,68,37,23,29.91,28.92,15,8,27,0.19
2014-3-14,44.2,32.0,28.9,35.2,8.6,-99.9,73,41,26,30.03,29.72,8,4,15,0.02
2014-3-15,56.8,47.4,43.3,40.9,30.9,-99.9,64,50,40,29.79,29.59,916,3,916,0.00
2014-3-16,45.7,38.0,28.6,32.4,27.0,17.9,90,57,23,29.94,29.78,9,3,14,0.00
2014-3-17,28.6,6.1,26.2,27.1,-72.1,-99.9,92,19,81,29.86,29.53,10,1,16,0.00
2014-3-18,40.6,35.2,27.0,32.7,26.8,-99.9,85,68,58,29.99,29.57,916,6,916,0.00
2014-3-19,51.4,43.2,37.2,48.5,39.5,31.8,98,83,74,29.98,29.60,13,5,20,0.21
2014-3-20,53.2,45.4,40.6,43.0,39.0,33.2,99,74,45,29.74,29.55,8,3,12,0.22
2014-3-21,54.7,44.1,35.6,39.8,35.6,29.9,84,65,42,29.83,29.57,8,2,12,0.01
2014-3-22,60.8,51.0,37.9,42.6,39.1,32.2,86,57,31,29.82,29.58,8,3,15,0.00
2014-3-23,54.1,43.2,34.9,35.9,32.3,14.8,74,57,29,29.85,29.54,8,3,14,0.00
2014-3-24,36.7,31.1,24.3,22.0,13.3,7.3,63,35,23,30.05,29.85,14,4,26,0.00
2014-3-25,38.8,27.3,24.4,30.4,6.7,-99.9,92,56,41,29.93,29.57,12,2,18,0.00
2014-3-26,36.5,31.4,30.0,29.9,14.8,-99.9,92,53,24,30.03,29.54,916,4,916,0.04
2014-3-27,40.8,34.8,28.2,33.6,18.5,8.5,73,40,22,30.24,30.04,9,4,17,0.01
2014-3-28,59.9,50.2,39.6,50.2,43.9,33.8,86,73,60,30.05,29.80,7,3,11,0.00
2014-3-29,56.8,52.9,48.7,56.6,52.0,47.7,99,96,82,29.87,29.12,8,2,14,0.87
2014-3-30,53.1,40.5,38.7,52.6,29.9,-99.9,99,88,91,29.44,28.93,10,3,20,0.35
2014-3-31,55.2,44.4,37.4,42.9,37.9,35.0,95,73,45,29.81,29.23,14,4,20,0.15
2014-4-1,54.5,44.0,34.9,39.4,34.8,-99.9,84,65,41,29.92,29.57,6,2,11,0.01
2014-4-2,58.6,49.0,42.4,48.5,42.1,-99.9,87,74,60,29.87,29.54,6,2,8,0.00
2014-4-3,59.7,52.2,46.6,49.6,42.8,33.3,85,64,36,29.86,29.48,11,3,15,0.00
2014-4-4,52.3,48.2,45.3,46.8,44.0,39.2,97,81,67,29.78,29.19,17,7,24,0.05
2014-4-5,56.1,49.2,44.1,47.5,42.5,32.5,99,74,49,29.88,29.20,8,3,15,0.01
2014-4-6,55.2,44.8,38.5,37.0,31.9,24.4,83,52,21,30.00,29.63,13,3,17,0.00
2014-4-7,54.9,46.3,35.4,54.2,43.8,31.8,99,88,73,29.97,29.18,11,3,20,0.27
2014-4-8,59.0,54.3,50.2,58.8,50.5,43.6,99,84,55,29.44,28.99,10,3,12,0.04
2014-4-9,61.3,52.1,40.1,46.6,42.7,37.3,88,64,36,29.78,29.15,7,2,11,0.01
2014-4-10,59.9,52.2,43.2,44.4,37.5,31.3,69,49,26,30.02,29.57,8,3,10,0.00
2014-4-11,73.8,60.8,52.3,52.9,49.0,44.5,71,58,36,29.83,29.53,7,3,11,0.00
2014-4-12,69.4,57.8,51.8,54.7,50.4,36.9,87,72,21,30.02,29.54,7,2,9,0.00
2014-4-13,71.2,60.7,52.9,58.7,54.7,49.2,96,77,56,29.96,29.56,10,4,14,0.00
2014-4-14,70.5,61.0,54.7,59.8,56.1,53.6,99,81,59,29.83,29.38,11,5,17,0.00
2014-4-15,61.2,50.6,39.6,60.7,43.9,-99.9,99,92,95,29.68,29.11,11,6,21,0.97
2014-4-16,51.3,40.7,33.4,38.5,27.7,20.2,98,52,24,30.30,29.69,14,5,26,0.92
2014-4-17,47.1,41.4,34.9,35.3,32.5,28.2,75,62,49,30.44,30.29,14,4,21,0.00
2014-4-18,51.1,43.8,40.3,40.4,36.8,33.4,83,69,54,30.35,30.03,9,3,13,0.00
2014-4-19,59.7,48.4,39.4,48.1,41.8,37.4,93,73,43,30.07,29.99,6,2,9,0.00
2014-4-20,54.3,48.8,42.3,43.2,38.0,32.1,80,58,39,30.21,30.05,14,6,22,0.00
2014-4-21,62.6,50.1,37.9,49.6,42.4,34.2,88,69,51,30.04,29.66,8,2,11,0.00
2014-4-22,67.6,56.5,45.0,54.3,49.7,42.4,95,74,52,29.66,29.33,4,1,8,0.00
2014-4-23,59.7,54.9,50.0,51.1,43.5,37.7,81,57,47,29.67,29.34,11,5,26,0.00
2014-4-24,60.6,52.7,46.6,44.6,36.6,29.1,63,45,26,29.80,29.51,9,4,20,0.00
2014-4-25,57.6,51.3,37.9,51.6,38.3,26.2,88,54,22,29.81,29.18,9,2,14,0.00
2014-4-26,69.3,58.8,50.4,54.6,49.7,44.5,97,68,35,29.62,29.15,12,3,21,0.00
2014-4-27,63.0,55.2,48.0,50.5,44.7,40.1,84,61,42,29.87,29.47,10,3,14,0.00
2014-4-28,61.2,51.2,43.9,45.3,41.9,36.6,93,65,43,29.89,29.79,5,2,11,0.00
2014-4-29,49.6,48.1,46.8,46.7,44.8,43.2,96,85,77,30.02,29.83,18,7,28,0.00
2014-4-30,59.9,54.2,47.5,58.6,53.5,46.5,99,97,91,30.00,29.67,14,5,22,0.00
2014-5-1,74.7,62.5,55.4,69.9,60.8,55.2,99,93,69,29.67,29.45,7,2,10,0.05
2014-5-2,68.9,60.2,53.1,58.8,51.3,46.3,97,68,39,29.65,29.47,6,2,8,0.20
2014-5-3,69.1,58.4,48.0,53.8,49.8,44.2,90,69,33,29.66,29.52,4,1,7,0.00
2014-5-4,70.2,59.5,48.9,54.3,50.3,43.2,96,67,43,29.62,29.47,11,2,15,0.00
2014-5-5,65.3,58.0,51.6,51.9,45.7,40.7,80,55,43,29.74,29.38,8,3,16,0.00
2014-5-6,70.3,59.5,53.6,54.9,50.2,43.8,81,66,35,29.81,29.40,6,2,11,0.00
2014-5-7,64.6,56.3,51.4,50.9,45.7,39.0,88,62,32,30.02,29.81,6,2,12,0.00
2014-5-8,75.9,62.2,55.9,63.7,56.9,49.9,97,79,58,29.95,29.79,8,2,13,0.00
2014-5-9,66.6,59.5,54.0,62.7,57.8,53.3,99,92,77,29.89,29.74,8,2,13,0.00
2014-5-10,77.0,67.6,56.3,66.6,61.5,56.1,99,77,56,29.76,29.67,8,3,14,0.00
2014-5-11,78.8,67.6,59.7,63.0,58.1,52.0,96,69,31,29.88,29.69,7,2,13,0.01
2014-5-12,78.8,69.6,57.9,67.6,62.8,57.1,96,76,54,29.91,29.80,6,1,11,0.01
2014-5-13,82.4,64.0,54.3,73.0,60.9,53.7,99,88,61,29.98,29.53,15,4,23,0.00
2014-5-14,64.2,58.0,54.5,61.9,57.3,53.9,99,97,88,30.02,29.92,8,3,14,0.00
2014-5-15,77.0,67.5,59.9,72.5,65.7,59.7,99,93,79,29.93,29.77,4,1,9,0.00
2014-5-16,67.3,63.0,57.4,67.1,62.5,57.2,99,98,97,29.77,29.56,7,2,11,0.52
2014-5-17,68.5,62.0,57.0,59.1,54.0,51.1,99,71,45,29.89,29.65,6,2,10,0.04
2014-5-18,68.5,62.3,55.6,55.2,50.4,44.5,85,58,40,29.96,29.88,7,3,11,0.00
2014-5-19,70.5,62.8,50.9,56.5,50.3,41.7,80,56,39,30.02,29.88,8,3,11,0.00
2014-5-20,74.1,66.3,60.6,59.8,56.2,52.6,83,65,40,29.94,29.53,6,2,8,0.00
2014-5-21,71.6,64.0,60.1,63.3,59.5,55.8,99,82,57,29.80,29.41,4,0,8,0.11
2014-5-22,75.9,64.5,60.3,69.2,63.2,60.0,99,95,74,29.66,29.27,4,0,8,0.48
2014-5-23,74.1,66.1,59.5,62.3,59.2,55.4,99,75,56,29.71,29.46,8,2,14,0.01
2014-5-24,73.4,64.4,58.6,62.7,58.0,55.1,96,75,61,29.87,29.46,9,2,14,0.01
2014-5-25,79.3,67.4,55.9,65.8,60.3,55.3,99,76,39,29.91,29.61,7,1,10,0.00
2014-5-26,85.5,72.9,63.3,69.5,64.9,60.0,95,73,46,29.89,29.47,5,2,9,0.00
2014-5-27,88.5,75.0,66.7,72.2,68.6,65.2,98,79,48,29.72,29.34,7,2,15,0.11
2014-5-28,73.9,64.2,55.6,70.7,62.9,54.3,99,94,81,29.87,29.32,14,3,24,0.14
2014-5-29,57.0,55.5,54.7,54.4,53.0,52.3,93,89,83,29.96,29.65,10,3,15,0.01
2014-5-30,69.3,61.2,53.8,61.4,57.2,52.9,97,84,66,29.91,29.54,6,2,10,0.01
2014-5-31,72.5,64.4,54.9,62.0,56.5,50.4,92,71,50,30.03,29.77,8,2,14,0.00
2014-6-1,73.6,61.4,49.5,57.3,51.9,48.1,97,68,33,30.13,29.78,5,1,9,0.00
2014-6-2,75.2,64.6,49.8,60.7,54.9,48.3,95,67,40,30.06,29.58,4,1,7,0.00
2014-6-3,84.7,72.3,62.2,70.5,64.0,53.0,91,71,51,29.84,29.34,4,1,7,0.02
2014-6-4,81.0,72.0,66.2,72.2,67.9,65.3,99,85,63,29.60,29.22,6,1,10,0.01
2014-6-5,76.3,69.9,66.4,69.9,66.7,64.4,99,88,67,29.57,29.08,7,2,12,0.12
2014-6-6,77.9,70.9,61.2,64.5,61.4,57.3,86,67,48,29.73,29.43,7,2,10,0.01
2014-6-7,79.5,71.0,62.8,67.3,63.7,60.3,97,75,52,29.78,29.44,7,1,9,0.00
2014-6-8,86.2,71.2,61.2,69.5,65.2,60.7,99,80,36,29.74,29.42,4,1,8,0.00
2014-6-9,79.0,71.7,67.6,72.3,68.7,64.8,99,88,73,29.68,29.41,4,1,8,0.00
2014-6-10,86.0,74.7,69.6,76.3,71.5,68.6,98,88,65,29.70,29.38,4,0,7,0.00
2014-6-11,71.4,68.6,65.8,69.9,68.1,65.6,99,98,91,29.84,29.44,11,3,14,0.24
2014-6-12,77.0,70.4,66.6,74.5,69.6,66.3,99,97,87,29.79,29.37,5,1,10,0.02
2014-6-13,82.9,72.3,67.1,76.0,70.8,66.7,99,94,74,29.62,29.30,7,1,10,0.28
2014-6-14,77.2,71.6,65.5,69.4,62.9,55.8,99,70,50,29.83,29.29,8,3,14,0.19
2014-6-15,79.5,70.3,64.2,66.6,60.6,54.1,90,66,48,29.91,29.57,10,3,16,0.01
2014-6-16,85.6,74.5,64.9,71.5,68.0,62.8,97,78,45,29.91,29.57,4,1,8,0.00
2014-6-17,90.5,79.2,69.8,78.0,73.4,69.0,98,80,55,29.85,29.46,4,1,7,0.00
2014-6-18,92.1,82.6,73.9,77.0,74.7,72.7,95,74,51,29.73,29.38,6,2,9,0.00
2014-6-19,82.6,75.3,67.3,75.9,70.6,65.1,95,82,70,29.77,29.49,10,2,13,0.01
2014-6-20,82.9,74.5,66.6,69.2,62.7,57.1,98,62,34,29.77,29.43,7,2,11,0.01
2014-6-21,78.3,72.2,69.4,69.9,66.4,62.2,92,78,51,29.69,29.40,5,1,8,0.00
2014-6-22,80.4,73.3,66.6,68.8,65.3,60.0,96,73,44,29.78,29.44,7,1,11,0.00
2014-6-23,82.2,73.1,63.0,69.6,63.1,58.1,99,69,38,29.93,29.52,4,0,6,0.00
2014-6-24,81.1,73.5,64.8,70.8,67.8,63.2,96,79,52,29.93,29.54,4,1,8,0.00
2014-6-25,83.7,76.7,71.2,77.2,74.1,69.8,99,90,77,29.80,29.35,4,1,9,0.00
2014-6-26,86.0,78.0,71.8,77.1,73.4,71.1,99,84,61,29.71,29.45,5,2,12,0.28
2014-6-27,79.0,73.2,64.9,74.3,67.2,61.0,97,79,55,29.96,29.45,11,3,16,0.01
2014-6-28,82.9,73.1,61.9,68.3,63.8,60.9,97,70,42,30.04,29.70,4,1,8,0.00
2014-6-29,81.9,72.1,59.4,68.6,64.6,58.7,98,75,40,30.01,29.64,6,1,11,0.00
2014-6-30,82.9,74.7,66.2,73.2,70.5,66.0,99,85,63,29.90,29.48,4,1,11,0.00
2014-7-1,86.0,77.8,71.6,76.9,73.7,70.5,97,85,68,29.75,29.38,6,1,15,0.00
2014-7-2,86.9,79.9,73.8,78.8,76.0,72.8,99,86,69,29.67,29.35,4,1,11,0.00
2014-7-3,91.6,79.3,70.5,79.9,75.7,70.1,99,87,59,29.75,29.39,10,1,20,0.04
2014-7-4,77.0,73.0,66.4,76.1,67.5,56.3,99,81,48,29.86,29.43,16,5,28,1.08
2014-7-5,81.3,74.2,66.7,64.2,59.6,55.3,75,53,39,29.97,29.86,11,3,22,0.01
2014-7-6,84.0,74.9,68.7,70.1,66.7,62.4,87,71,48,29.92,29.74,8,2,11,0.00
2014-7-7,91.0,78.6,70.7,74.6,71.0,67.0,88,74,49,29.74,29.58,7,1,10,0.00
2014-7-8,90.1,80.4,72.3,76.7,73.9,70.9,96,78,54,29.65,29.27,9,2,14,0.08
2014-7-9,87.4,77.6,71.2,77.3,73.6,70.1,99,85,60,29.73,29.31,5,1,10,0.13
2014-7-10,79.7,73.7,69.8,75.3,72.1,69.3,99,94,77,29.86,29.71,8,2,11,0.28
2014-7-11,82.0,74.2,68.2,74.1,70.4,67.7,99,86,66,29.97,27.58,8,2,11,0.13
2014-7-12,82.2,73.7,66.2,73.9,70.3,66.0,99,88,66,29.99,29.90,3,1,6,0.00
2014-7-13,82.0,74.4,69.3,76.1,72.4,69.0,99,92,77,29.91,29.69,4,1,8,0.00
2014-7-14,87.3,77.4,71.6,79.0,74.1,69.5,98,88,70,29.75,29.57,8,1,15,0.02
2014-7-15,84.2,75.2,69.4,78.5,73.4,69.2,99,93,77,29.60,29.44,8,1,12,0.85
2014-7-16,81.3,74.2,69.8,72.5,69.4,65.2,98,83,59,29.65,29.27,8,1,12,1.34
2014-7-17,83.7,76.3,69.8,70.3,65.8,62.0,80,64,45,29.87,29.64,6,2,9,0.01
2014-7-18,83.1,73.0,62.4,65.6,62.5,59.3,92,66,43,29.98,29.87,7,1,10,0.00
2014-7-19,76.8,71.5,66.4,72.2,67.5,60.7,95,84,73,29.97,29.62,8,3,13,0.00
2014-7-20,76.8,71.2,66.0,70.9,68.7,65.6,99,90,72,29.89,29.55,11,4,19,0.02
2014-7-21,80.8,72.0,63.9,71.1,67.1,63.2,99,82,55,29.96,29.87,7,1,9,0.01
2014-7-22,83.3,74.2,65.5,73.2,69.5,65.3,99,83,54,29.96,29.83,4,0,6,0.00
2014-7-23,85.5,77.4,70.2,78.6,73.8,68.5,99,87,69,29.83,29.57,5,1,11,0.05
2014-7-24,81.3,74.6,71.6,73.8,70.6,67.5,97,85,63,29.65,29.55,6,2,11,0.56
2014-7-25,82.0,73.7,67.6,67.8,64.4,60.1,91,68,42,29.80,29.64,9,2,13,0.00
2014-7-26,79.9,73.0,65.3,74.7,69.1,64.5,97,85,67,29.77,29.67,4,0,7,0.06
2014-7-27,83.1,76.7,71.4,76.3,73.5,70.2,99,88,74,29.67,29.43,8,1,12,0.04
2014-7-28,84.2,77.9,72.1,76.7,71.9,64.8,99,79,56,29.50,29.31,9,3,15,0.00
2014-7-29,78.4,71.9,67.1,66.0,62.7,59.6,86,67,47,29.74,29.50,8,2,14,0.01
2014-7-30,79.9,71.2,62.6,65.0,61.7,58.6,91,68,43,29.83,29.71,8,2,11,0.02
2014-7-31,83.8,72.8,61.7,72.3,67.9,60.8,98,82,59,29.91,29.82,5,1,8,0.01
2014-8-1,79.3,73.7,69.8,73.3,70.6,67.9,98,88,71,29.96,29.68,3,0,5,0.05
2014-8-2,74.8,69.4,65.1,71.7,68.5,64.9,99,96,86,29.91,29.82,8,2,9,1.59
2014-8-3,77.5,71.1,67.8,74.3,70.2,67.6,99,96,85,29.86,29.77,6,2,11,0.50
2014-8-4,84.2,74.6,68.7,74.3,71.2,68.5,99,88,56,29.85,29.79,4,1,7,0.01
2014-8-5,84.7,75.6,68.7,75.0,71.4,68.5,99,85,55,29.82,29.68,4,1,7,0.01
2014-8-6,82.6,75.6,70.5,72.7,70.2,67.5,97,80,58,29.68,29.63,5,2,9,0.00
2014-8-7,81.9,75.7,69.6,70.7,67.2,62.0,92,71,45,29.77,29.65,7,2,10,0.00
2014-8-8,80.4,72.0,61.5,67.7,62.2,57.1,95,67,45,29.88,29.77,10,2,12,0.00
2014-8-9,83.8,74.9,65.5,69.8,66.2,61.6,98,71,39,29.88,29.82,5,1,8,0.00
2014-8-10,86.4,75.7,67.1,73.6,69.4,65.8,99,79,49,29.89,29.59,3,0,4,0.00
2014-8-11,83.3,73.7,62.1,72.7,68.6,61.6,99,82,57,29.90,29.55,6,1,11,0.00
2014-8-12,80.1,75.4,72.7,75.0,73.3,70.8,99,92,78,29.81,29.51,5,1,11,0.80
2014-8-13,82.9,76.8,72.5,76.0,72.5,66.5,99,85,63,29.59,29.45,8,3,14,0.58
2014-8-14,80.6,73.7,68.4,67.3,61.7,57.9,81,60,42,29.71,29.59,10,3,15,0.01
2014-8-15,77.7,71.7,65.1,67.4,57.9,54.4,84,55,43,29.77,29.65,7,3,10,0.00
2014-8-16,83.3,72.9,62.6,73.2,66.3,57.7,99,77,51,29.78,29.68,4,0,8,0.00
2014-8-17,82.6,74.9,65.7,73.0,70.2,65.4,99,83,66,29.70,29.61,7,2,10,0.01
2014-8-18,81.3,73.4,64.9,68.7,63.5,59.2,84,66,43,29.69,29.59,6,1,9,0.01
2014-8-19,82.2,75.7,70.7,71.4,69.4,66.7,94,77,61,29.67,29.56,8,1,11,0.00
2014-8-20,82.9,74.3,66.0,71.1,67.5,65.0,99,77,51,29.79,29.66,7,1,10,0.00
2014-8-21,83.8,74.9,65.3,74.6,70.6,65.0,99,84,67,29.81,29.73,4,0,9,0.00
2014-8-22,79.2,73.2,68.5,75.1,70.5,65.9,99,89,74,29.76,29.68,9,2,14,1.05
2014-8-23,76.8,70.3,64.8,70.2,66.1,63.5,99,84,70,29.84,29.73,9,3,17,0.01
2014-8-24,78.3,70.2,63.5,67.8,63.8,61.5,95,76,57,29.88,29.83,11,3,17,0.00
2014-8-25,81.9,70.6,60.8,66.3,62.7,59.5,96,73,46,29.92,29.87,8,2,13,0.00
2014-8-26,82.4,71.7,61.9,72.7,66.4,61.4,99,81,54,29.91,29.84,6,1,11,0.00
2014-8-27,85.6,72.6,61.2,71.1,66.4,60.7,99,79,48,29.84,29.65,4,1,6,0.00
2014-8-28,81.3,76.5,73.0,73.7,67.0,60.2,94,68,49,29.81,29.58,10,3,14,0.00
2014-8-29,77.4,69.5,62.1,65.5,60.7,55.8,91,68,54,29.99,29.81,9,2,14,0.00
2014-8-30,81.7,71.2,61.5,69.8,66.0,61.0,99,81,57,30.01,29.91,4,0,8,0.00
2014-8-31,87.1,79.2,72.0,78.8,75.6,69.8,98,87,69,29.92,29.76,4,1,9,0.00
2014-9-1,90.3,79.2,74.1,79.7,76.4,73.9,99,90,61,29.79,29.69,4,1,6,0.01
2014-9-2,93.6,82.1,74.5,79.2,76.3,74.0,99,81,50,29.73,29.59,4,1,8,0.00
2014-9-3,82.4,77.0,70.2,76.6,71.8,68.1,99,81,64,29.88,29.62,7,1,13,0.13
2014-9-4,83.8,75.4,66.2,75.1,71.0,66.0,99,85,58,29.94,29.64,4,0,6,0.01
2014-9-5,88.0,79.2,73.4,79.4,76.2,73.2,99,89,66,29.93,29.55,4,0,6,0.00
2014-9-6,92.3,81.9,73.0,79.9,76.7,71.8,99,82,56,29.80,29.37,11,2,21,0.20
2014-9-7,78.1,72.0,66.4,73.6,67.7,64.3,98,84,63,29.91,29.43,8,2,14,0.31
2014-9-8,73.2,70.1,67.3,67.3,64.8,60.4,94,80,58,30.01,29.65,12,3,16,0.07
2014-9-9,75.4,72.0,69.1,70.7,68.9,66.4,98,88,79,29.93,29.57,11,5,18,0.02
2014-9-10,79.0,70.4,64.6,69.8,66.7,63.9,98,86,65,29.86,29.53,9,2,11,0.00
2014-9-11,85.3,76.6,66.7,76.9,72.5,65.8,98,85,66,29.79,29.36,7,1,10,0.00
2014-9-12,77.0,70.7,62.4,74.7,64.4,59.9,95,77,58,29.90,29.63,10,3,14,0.00
2014-9-13,74.7,67.7,61.5,72.1,65.9,60.4,99,92,81,29.91,29.54,11,2,21,0.21
2014-9-14,69.4,62.6,56.1,61.1,56.1,51.6,91,75,56,30.04,29.66,11,3,16,0.01
2014-9-15,73.6,64.7,55.4,58.8,55.9,51.9,94,68,44,29.99,29.58,6,1,8,0.00
2014-9-16,78.1,68.9,61.2,67.9,63.2,58.2,99,79,52,29.83,29.45,8,1,10,0.20
2014-9-17,76.3,65.1,56.8,60.1,55.0,49.0,96,67,33,29.81,29.47,6,2,9,0.01
2014-9-18,75.6,65.0,53.8,64.3,57.6,53.1,99,74,45,29.85,29.45,5,1,8,0.00
2014-9-19,72.5,66.8,57.0,64.6,61.2,55.0,93,78,64,30.07,29.59,11,4,22,0.00
2014-9-20,77.5,70.5,63.1,70.4,66.2,60.6,98,83,67,30.06,29.51,4,1,8,0.00
2014-9-21,79.5,71.7,67.6,73.9,70.1,67.4,99,94,79,29.77,29.15,5,1,9,0.00
2014-9-22,73.2,69.5,61.9,69.8,59.0,50.4,92,63,49,29.93,29.17,9,4,16,0.00
2014-9-23,66.7,59.1,51.4,56.1,50.5,45.9,89,67,53,30.12,29.68,9,2,14,0.00
2014-9-24,72.0,65.4,55.9,65.4,60.4,53.7,99,80,65,30.20,29.63,14,5,26,0.25
2014-9-25,68.9,65.9,61.3,68.7,65.6,60.7,99,99,97,30.07,29.66,14,7,24,1.68
2014-9-26,75.0,64.7,58.5,66.1,60.8,57.0,99,85,66,29.97,29.66,8,2,12,0.01
2014-9-27,78.3,67.1,57.0,69.3,62.5,56.8,99,83,59,29.97,29.66,8,1,11,0.00
2014-9-28,79.2,66.7,56.3,68.3,62.4,56.1,99,85,47,29.95,29.81,4,1,6,0.00
2014-9-29,75.0,69.0,65.8,69.3,66.8,64.8,99,91,70,29.80,29.67,4,1,6,0.02
2014-9-30,75.4,67.2,62.1,67.1,63.8,60.9,99,87,60,29.70,29.63,6,1,10,0.11
2014-10-1,73.0,65.3,60.8,65.6,62.7,59.8,98,90,67,29.81,29.67,7,2,11,0.01
2014-10-2,69.6,63.7,59.0,63.7,60.9,58.7,99,89,73,29.88,29.80,8,2,11,0.00
2014-10-3,71.1,64.7,58.6,64.3,61.4,58.4,99,87,69,29.86,29.57,6,1,10,0.00
2014-10-4,72.1,67.0,55.2,70.6,61.7,42.0,99,80,47,29.57,29.32,11,3,21,0.15
2014-10-5,64.0,56.4,50.4,49.1,42.8,39.3,80,51,35,29.75,29.53,12,4,18,0.01
2014-10-6,71.6,64.6,58.3,59.4,53.9,48.8,72,61,46,29.85,29.75,6,2,11,0.00
2014-10-7,72.7,68.1,64.0,67.1,62.2,58.3,91,77,64,29.83,29.68,6,2,12,0.00
2014-10-8,75.7,68.9,65.7,67.2,63.4,55.1,99,80,55,29.75,29.59,8,3,14,0.08
2014-10-9,72.0,65.6,59.9,57.8,51.1,45.1,72,52,33,29.88,29.75,6,2,11,0.00
2014-10-10,64.9,59.7,56.1,58.7,55.1,48.5,99,82,61,29.88,29.55,4,2,8,0.15
2014-10-11,60.6,57.1,54.1,60.4,56.8,53.4,99,98,94,29.89,29.64,8,4,14,0.44
2014-10-12,65.8,56.4,48.6,54.5,51.6,48.2,99,81,54,30.06,29.80,7,2,11,0.01
2014-10-13,66.7,63.1,55.9,66.5,61.4,53.3,99,93,82,30.06,29.71,7,0,8,0.15
2014-10-14,77.5,70.6,65.7,70.6,68.0,65.4,99,90,74,29.97,29.55,4,1,8,0.01
2014-10-15,75.2,71.2,69.1,72.0,69.8,68.5,99,94,86,29.82,29.30,4,1,9,0.09
2014-10-16,74.5,66.6,61.5,69.4,63.0,59.6,99,86,57,29.53,29.22,6,2,11,0.18
2014-10-17,73.0,65.0,59.7,63.6,60.3,58.4,96,81,58,29.57,29.47,6,2,9,0.01
2014-10-18,73.0,65.0,57.4,62.5,58.0,48.7,92,74,52,29.56,29.38,8,3,16,0.00
2014-10-19,57.4,54.7,51.8,49.7,44.1,37.3,77,60,43,29.85,29.54,11,4,20,0.00
2014-10-20,66.7,54.3,37.4,53.4,44.5,34.0,93,63,44,29.91,29.72,6,1,10,0.00
2014-10-21,70.3,61.3,55.2,60.6,56.0,52.0,96,79,47,29.72,29.55,4,1,8,0.00
2014-10-22,61.9,56.8,54.5,58.0,55.4,52.6,99,94,80,29.60,29.50,19,5,27,0.21
2014-10-23,58.8,54.9,52.5,53.5,51.1,49.5,96,84,75,29.59,29.47,9,5,21,0.01
2014-10-24,67.1,60.1,54.9,57.7,53.0,49.3,80,72,59,29.64,29.56,8,4,14,0.00
2014-10-25,69.1,60.5,54.5,57.0,52.4,48.6,79,69,46,29.68,29.43,9,3,17,0.00
2014-10-26,72.7,61.3,59.4,55.9,51.1,44.0,82,63,38,30.29,29.37,8,4,14,0.00
2014-10-27,66.0,57.9,51.3,51.6,47.3,42.9,90,61,38,30.48,30.10,6,2,11,0.00
2014-10-28,75.2,63.7,54.7,99.9,58.5,-99.4,87,74,1,30.49,30.16,238,1,238,0.00
2014-10-29,69.4,63.7,56.5,64.2,58.6,49.1,94,79,60,30.38,30.08,6,2,12,0.00
2014-10-30,61.3,55.5,48.0,54.2,49.7,41.0,98,77,53,30.25,30.17,7,2,13,0.00
2014-10-31,55.9,49.0,42.3,48.1,43.1,37.4,86,74,66,30.25,29.97,9,3,14,0.00
2014-11-1,52.5,48.7,45.1,51.9,46.5,41.0,99,90,67,29.97,29.86,17,9,34,0.21
2014-11-2,50.4,46.3,43.9,42.2,36.1,25.6,90,61,34,30.36,29.95,14,7,27,0.04
2014-11-3,58.8,51.0,44.6,45.6,37.5,28.5,67,50,34,30.48,30.36,8,4,17,0.01
2014-11-4,68.0,57.6,51.4,54.4,48.5,43.7,79,65,33,30.44,30.29,7,2,10,0.00
2014-11-5,63.1,57.3,54.1,53.3,50.8,47.9,89,74,60,30.58,30.28,4,1,8,0.00
2014-11-6,63.1,55.9,51.8,61.3,53.0,44.2,99,88,58,30.36,29.85,10,2,14,0.32
2014-11-7,55.8,50.9,43.9,52.3,42.5,32.3,98,67,41,30.24,29.85,14,5,20,0.15
2014-11-8,51.4,46.0,39.2,46.6,37.2,31.9,85,63,45,30.31,30.17,8,2,14,0.01
2014-11-9,55.0,49.9,39.6,48.9,45.8,39.2,99,82,66,30.25,30.13,4,1,9,0.00
2014-11-10,62.4,47.7,35.2,49.4,42.7,34.9,99,81,42,30.40,30.25,4,0,7,0.00
2014-11-11,69.3,59.5,46.6,63.2,57.6,46.4,99,92,73,30.33,30.10,5,1,9,0.00
2014-11-12,65.3,58.0,48.7,62.9,55.0,40.8,99,87,66,30.48,30.07,7,2,14,0.00
2014-11-13,48.6,43.9,37.6,40.8,37.8,33.2,99,73,59,30.52,30.22,9,4,15,0.04
2014-11-14,44.1,39.9,37.2,37.7,30.7,23.7,99,62,40,30.46,30.19,11,4,17,0.06
2014-11-15,44.4,37.9,28.4,31.2,28.0,24.1,80,59,37,30.61,30.45,10,3,14,0.00
2014-11-16,49.5,41.1,28.6,43.2,34.5,24.8,92,71,54,30.79,30.30,5,0,8,0.04
2014-11-17,59.2,50.4,44.6,59.0,49.6,39.3,99,96,71,30.30,29.74,9,2,14,0.58
2014-11-18,45.9,33.7,27.9,39.3,20.2,10.5,71,46,27,30.45,29.91,14,7,24,0.09
2014-11-19,38.7,31.5,25.9,28.2,17.0,9.5,57,42,28,30.57,30.32,17,5,25,0.00
2014-11-20,52.5,44.1,36.0,39.6,32.9,20.8,67,55,42,30.32,30.10,12,5,21,0.00
2014-11-21,37.6,34.2,32.2,21.4,17.3,12.5,49,37,24,30.97,30.30,11,4,18,0.00
2014-11-22,48.2,37.6,24.1,34.7,25.8,15.3,67,52,37,30.77,30.50,8,2,11,0.00
2014-11-23,58.3,50.1,42.3,57.7,43.7,34.1,99,73,54,30.50,30.11,7,2,12,0.00
2014-11-24,70.7,61.7,58.3,62.4,60.0,57.8,99,93,68,30.22,29.88,8,3,15,0.19
2014-11-25,63.1,52.9,46.6,61.2,48.9,41.3,99,82,67,30.59,29.98,5,1,11,0.01
2014-11-26,48.6,41.7,37.0,43.3,40.5,36.5,99,94,67,30.58,29.91,15,5,24,1.11
2014-11-27,44.8,39.7,37.6,38.3,35.2,31.1,92,79,64,30.54,30.15,7,3,14,0.02
2014-11-28,41.5,36.6,27.0,34.5,26.8,19.4,79,58,39,30.72,30.33,8,3,17,0.00
2014-11-29,46.0,36.3,25.2,39.7,28.4,19.4,74,65,49,30.66,30.45,7,1,11,0.00
2014-11-30,60.4,51.2,44.6,49.6,43.3,36.4,83,67,52,30.65,30.31,6,2,13,0.00
2014-12-1,68.4,54.5,41.7,56.0,49.5,38.3,99,80,56,30.86,30.35,12,3,21,0.09
2014-12-2,49.8,42.2,36.1,49.6,40.7,33.7,99,93,72,30.96,30.50,11,4,17,0.48
2014-12-3,53.1,47.0,41.9,52.0,46.2,35.5,99,97,67,30.70,30.24,6,2,10,0.01
2014-12-4,44.1,41.4,39.7,35.4,32.0,30.3,70,60,51,30.91,30.50,6,2,10,0.01
2014-12-5,47.1,42.7,37.8,43.4,38.2,30.9,96,80,61,30.94,30.56,4,1,7,0.01
2014-12-6,57.2,49.9,43.7,55.9,49.3,42.7,99,97,93,30.57,30.25,9,1,17,0.33
2014-12-7,47.7,40.8,32.5,43.5,29.0,14.9,99,57,23,30.94,30.33,20,8,30,0.11
2014-12-8,45.9,36.8,31.6,45.3,32.9,19.4,99,83,46,30.95,30.36,17,6,27,0.32
2014-12-9,48.4,44.1,41.9,47.4,43.5,41.3,99,97,91,30.37,29.94,20,6,31,1.41
2014-12-10,43.3,41.9,38.5,41.5,37.0,32.7,98,77,65,29.99,29.91,12,4,21,0.02
2014-12-11,40.5,37.7,34.7,33.4,30.5,28.0,83,67,55,30.19,29.99,14,8,24,0.00
2014-12-12,40.3,39.2,36.1,34.6,31.0,26.2,75,64,49,30.27,30.18,10,4,19,0.00
2014-12-13,44.6,38.8,34.9,35.2,32.4,28.6,78,70,59,30.29,30.17,9,4,17,0.00
2014-12-14,43.2,40.5,37.0,39.8,36.4,31.8,85,80,74,30.22,30.13,6,2,11,0.00
2014-12-15,45.3,40.6,33.8,42.6,35.9,31.1,98,78,66,30.34,29.96,4,1,5,1.39
2014-12-16,54.7,45.7,34.5,49.8,44.1,32.4,99,93,74,30.33,30.07,5,1,9,0.24
2014-12-17,50.7,45.0,39.9,45.1,41.2,32.2,99,83,64,30.22,30.06,8,3,14,0.01
2014-12-18,41.5,38.6,36.9,32.3,29.2,25.4,68,59,51,30.32,30.21,11,5,17,0.00
2014-12-19,40.3,37.5,30.0,31.7,29.6,22.9,68,65,58,30.44,30.26,8,4,16,0.00
2014-12-20,36.5,31.2,25.0,27.2,24.2,19.7,80,67,55,30.53,30.42,5,1,8,0.00
2014-12-21,41.0,33.3,25.3,31.3,26.5,20.1,81,68,54,30.56,30.49,5,1,8,0.00
2014-12-22,47.8,38.1,29.5,46.4,34.9,24.7,96,84,72,30.55,30.26,11,4,15,0.02
2014-12-23,54.1,51.7,47.8,53.5,51.2,46.6,99,98,93,30.28,30.18,13,5,18,0.04
2014-12-24,60.1,53.9,47.8,59.9,53.6,47.6,99,99,97,30.26,29.80,8,3,13,0.72
2014-12-25,60.3,49.0,42.3,60.0,44.7,37.3,99,82,56,30.63,29.79,8,3,14,6.03
2014-12-26,48.4,42.5,36.9,39.2,37.1,32.3,86,75,56,30.66,30.41,6,2,10,0.01
2014-12-27,52.3,44.7,38.1,43.8,40.6,35.5,97,82,60,30.52,30.32,3,1,7,0.00
2014-12-28,51.6,48.6,45.0,46.8,44.1,41.1,96,80,67,30.32,30.14,6,2,8,0.08
2014-12-29,45.1,41.5,39.0,44.3,35.3,28.1,97,73,53,30.46,30.30,6,2,9,0.15
2014-12-30,39.0,35.4,27.1,28.1,21.7,16.4,55,45,35,30.83,30.45,9,3,13,0.01
2014-12-31,35.2,32.5,24.6,23.6,19.2,14.9,68,46,32,30.63,30.45,8,4,13,0.00
2015-1-1,45.7,38.5,33.6,32.0,26.1,19.9,65,51,30,30.47,30.28,12,5,15,0.00
2015-1-2,45.0,39.1,29.5,34.3,31.0,26.0,82,65,49,30.65,30.30,6,2,9,0.00